Location: Newark
(30.3369°N, 81.6614°W)
Time: 10:32:19
(UTC+00:00)

N. Korean satellite - Visible Passes

Search period start: 30 September 2020 00:00
Search period end: 10 October 2020 00:00
Orbit: 455 x 503 km, 97.2° (Epoch: 29 September)

Date Brightness Start Highest point End Pass type
(mag) Time Alt. Az. Time Alt. Az. Time Alt. Az.
01 Oct 7.6 10:38:22 10° NNE 10:41:50 49° E 10:45:12 10° S visible
02 Oct 9.5 10:13:03 10° NE 10:15:43 20° E 10:18:20 10° SE visible
04 Oct 6.5 10:53:27 10° NNE 10:56:59 88° ESE 11:00:26 10° SSW visible
05 Oct 8.5 10:27:42 10° NNE 10:30:54 33° E 10:34:03 10° SSE visible
06 Oct 9.9 10:02:49 10° ENE 10:04:44 14° E 10:06:38 10° SE visible
08 Oct 7.2 10:42:35 10° NNE 10:46:02 58° E 10:49:24 10° S visible
09 Oct 9.2 10:17:05 10° NE 10:19:54 23° E 10:22:39 10° SSE visible
